Stations météo

réclame
Mon MeteoGroup
Gourette, France (7775): Température de l'air & dewpoint: 19.01.2020 04:00:00 - 25.01.2020 04:00:00 (CET)Gourette, France (7775): Vitesse du vent & gusts: 19.01.2020 04:00:00 - 25.01.2020 04:00:00 (CET)Gourette, France (7775): Direction du vent: 19.01.2020 04:00:00 - 25.01.2020 04:00:00 (CET)Gourette, France (7775): reduced air pressure: 19.01.2020 04:00:00 - 25.01.2020 04:00:00 (CET)Gourette, France (7775): visibility: 19.01.2020 04:00:00 - 25.01.2020 04:00:00 (CET)Gourette, France (7775): Quantités de précipitations: 19.01.2020 04:00:00 - 25.01.2020 04:00:00 (CET)
Date & Time tt [°C] td [°C] ff [km/h] ff [knt] fx [km/h] fx [knt] dd ppp [hPa] vv [km] rr [mm]
25.01.2020 04:00:00 9,8 7,9 13 7 16 9 NW 1020,1 - 0,0
25.01.2020 03:00:00 9,4 8,0 8 4 16 8 WSW 1020,5 - 0,0
25.01.2020 02:00:00 9,3 8,1 16 9 20 11 NNW 1020,4 - 0,0
25.01.2020 01:00:00 9,8 9,0 16 9 19 10 NNW 1020,7 - 0,0
25.01.2020 00:00:00 9,9 9,3 13 7 21 12 N 1020,9 - 0,0
24.01.2020 23:00:00 10,2 9,4 9 5 27 15 ENE 1020,8 - -
24.01.2020 22:00:00 10,3 9,7 18 10 42 23 SSW 1021,2 - -
24.01.2020 21:00:00 10,4 9,6 15 8 37 20 SW 1021,5 - -
24.01.2020 20:00:00 10,5 9,6 5 3 48 26 ENE 1021,4 - -
24.01.2020 19:00:00 13,5 12,1 21 12 60 32 ESE 1021,6 - 0,0
24.01.2020 18:00:00 13,4 12,0 40 22 64 35 SE 1020,6 - 0,2
24.01.2020 17:00:00 13,4 12,1 36 19 60 33 SE 1020,8 - 0,0
24.01.2020 16:00:00 12,8 11,7 34 18 55 30 ESE 1021,3 - 0,4
24.01.2020 15:00:00 13,2 11,4 29 16 49 26 SE 1022,1 - 0,2
24.01.2020 14:00:00 13,9 11,4 29 15 46 25 SSE 1022,9 - 0,0
24.01.2020 13:00:00 13,9 10,9 29 16 50 27 SSE 1023,5 - 0,0
24.01.2020 12:00:00 13,6 11,8 24 13 50 27 SSE 1024,5 - 0,2
24.01.2020 11:00:00 13,6 12,0 24 13 42 23 SSE 1024,8 - 0,0
24.01.2020 10:00:00 11,9 11,1 19 10 37 20 SSW 1024,9 10 0,0
24.01.2020 09:00:00 11,4 10,8 17 9 23 12 SW 1024,9 - 0,2
24.01.2020 08:00:00 11,3 10,5 16 9 23 13 SSW 1024,9 - 0,6
24.01.2020 07:00:00 11,6 10,3 16 8 21 12 SW 1024,7 12 0,0
24.01.2020 06:00:00 11,8 9,7 15 8 19 10 SW 1024,7 - 0,0
24.01.2020 05:00:00 11,9 9,8 14 7 17 9 SSW 1024,7 - 0,0
24.01.2020 04:00:00 11,8 9,7 15 8 19 10 SSW 1025,0 - 0,0
24.01.2020 03:00:00 11,6 9,8 14 8 19 11 SSW 1025,6 - 0,0
24.01.2020 02:00:00 11,4 10,0 14 7 18 10 SSW 1025,8 - 0,0
24.01.2020 01:00:00 11,7 10,8 13 7 15 8 SSW 1026,4 - 0,0
24.01.2020 00:00:00 11,8 10,7 13 7 17 9 SSW 1026,8 - 0,0
23.01.2020 23:00:00 12,0 10,9 14 8 18 10 SW 1026,8 - 0,0
23.01.2020 22:00:00 12,4 11,1 14 8 21 12 SSW 1027,1 - 0,0
23.01.2020 21:00:00 12,5 11,2 13 7 20 11 SSW 1026,9 - 0,0
23.01.2020 20:00:00 12,5 11,1 13 7 18 10 SSW 1026,9 - 0,0
23.01.2020 19:00:00 12,6 11,0 12 6 21 11 SSW 1027,1 12 0,0
23.01.2020 18:00:00 13,3 11,2 15 8 33 18 S 1027,0 - 0,0
23.01.2020 17:00:00 13,2 11,6 22 12 35 19 SSE 1026,8 - 0,0
23.01.2020 16:00:00 13,4 10,9 24 13 37 20 SSE 1026,8 - 0,0
23.01.2020 15:00:00 13,5 11,2 23 12 40 22 SSE 1026,9 - 0,0
23.01.2020 14:00:00 13,4 11,8 23 12 36 20 SSE 1027,3 - 0,0
23.01.2020 13:00:00 12,2 11,4 9 5 27 15 S 1028,0 - 0,6
23.01.2020 12:00:00 12,4 11,1 13 7 23 13 SSW 1028,7 - 0,2
23.01.2020 11:00:00 13,0 11,1 12 6 19 10 SSW 1029,0 - 0,0
23.01.2020 10:00:00 13,2 10,9 10 5 19 10 S 1028,7 12 0,0
23.01.2020 09:00:00 12,1 10,3 16 9 21 12 SSW 1028,5 - 0,0
23.01.2020 08:00:00 11,7 9,6 14 8 23 12 SW 1028,2 - 0,0
23.01.2020 07:00:00 11,1 8,8 17 9 23 12 SW 1028,1 - 0,0
23.01.2020 06:00:00 10,3 7,9 19 10 27 14 SSW 1027,9 - 0,0
23.01.2020 05:00:00 10,6 8,0 21 11 30 16 SSW 1027,7 - 0,0
23.01.2020 04:00:00 10,7 8,1 22 12 29 16 SSW 1027,7 - 0,0
23.01.2020 03:00:00 10,1 8,0 23 12 29 16 SSW 1028,2 - 0,0
23.01.2020 02:00:00 10,4 8,2 21 11 30 16 SSW 1028,2 - 0,0
23.01.2020 01:00:00 10,8 8,4 23 13 34 18 SSW 1028,7 - 0,0
23.01.2020 00:00:00 10,9 8,6 24 13 39 21 SSW 1029,0 - 0,0
22.01.2020 23:00:00 10,9 9,3 24 13 39 21 SSW 1028,8 - 0,0
22.01.2020 22:00:00 11,3 10,4 26 14 36 20 SSW 1028,7 - 0,0
22.01.2020 21:00:00 11,4 10,8 26 14 37 20 SSW 1028,6 - 0,0
22.01.2020 20:00:00 11,7 10,9 25 14 37 20 SSW 1029,1 - 0,0
22.01.2020 19:00:00 11,8 10,9 23 12 31 17 SSW 1029,3 - 0,0
22.01.2020 18:00:00 12,3 11,2 22 12 31 17 SSW 1029,6 - 0,0
22.01.2020 17:00:00 13,5 11,5 26 14 40 21 S 1029,5 - 0,0
22.01.2020 16:00:00 15,5 12,1 25 13 37 20 S 1029,9 10 0,0
22.01.2020 15:00:00 15,2 12,1 22 12 41 22 S 1030,3 - 0,0
22.01.2020 14:00:00 14,5 12,2 22 12 40 22 S 1030,9 - 0,0
22.01.2020 13:00:00 14,4 12,1 21 12 35 19 S 1031,8 - 0,0
22.01.2020 12:00:00 14,7 12,0 20 11 33 18 S 1032,6 - 0,0
22.01.2020 11:00:00 13,4 12,5 16 9 23 12 SSW 1033,2 - 0,2
22.01.2020 10:00:00 12,7 11,9 18 10 28 15 SSW 1033,0 10 0,0
22.01.2020 09:00:00 12,0 11,5 17 9 24 13 SW 1033,2 - 0,0
22.01.2020 08:00:00 11,9 11,4 16 8 22 12 SSW 1033,0 - 1,4
22.01.2020 07:00:00 11,7 10,9 16 9 23 12 SSW 1033,0 15 0,0
22.01.2020 06:00:00 11,3 10,5 17 9 19 10 SW 1033,1 - 0,0
22.01.2020 05:00:00 11,6 10,7 11 6 16 9 SW 1033,5 - 0,0
22.01.2020 04:00:00 11,5 10,4 11 6 13 7 SW 1033,7 - 0,2
22.01.2020 03:00:00 12,3 9,8 8 4 9 5 SSW 1034,3 - 0,0
22.01.2020 02:00:00 12,3 9,7 8 5 16 9 WSW 1034,4 - 0,0
22.01.2020 01:00:00 11,5 9,7 10 5 21 12 SW 1034,6 - 0,0
22.01.2020 00:00:00 11,3 8,9 12 6 15 8 SSW 1034,9 - 0,0
21.01.2020 23:00:00 11,5 8,7 10 5 20 11 SW 1035,0 - 0,0
21.01.2020 22:00:00 12,3 8,6 10 5 22 12 SSE 1035,0 - 0,0
21.01.2020 21:00:00 11,9 8,2 6 4 15 8 S 1035,1 - 0,0
21.01.2020 20:00:00 11,7 7,6 7 4 18 10 S 1035,4 - 0,0
21.01.2020 19:00:00 11,6 7,3 6 4 16 9 S 1035,5 - 0,0
21.01.2020 18:00:00 11,3 7,8 2 1 10 6 SSE 1035,5 - 0,0
21.01.2020 17:00:00 11,6 6,7 4 2 9 5 W 1035,3 - 0,0
21.01.2020 16:00:00 11,4 6,7 3 2 9 5 W 1035,5 - 0,0
21.01.2020 15:00:00 11,1 6,8 4 2 11 6 W 1035,8 - 0,0
21.01.2020 14:00:00 10,8 6,5 8 5 13 7 WNW 1036,4 - 0,0
21.01.2020 13:00:00 10,7 6,8 9 5 16 9 NW 1037,1 - 0,0
21.01.2020 12:00:00 10,2 6,9 13 7 18 10 NW 1038,0 - 0,0
21.01.2020 11:00:00 9,7 7,0 14 7 16 9 NW 1038,4 - 0,0
21.01.2020 10:00:00 9,6 6,9 9 5 20 11 N 1038,4 12 0,0
21.01.2020 09:00:00 9,3 6,9 11 6 20 11 N 1038,0 - 0,0
21.01.2020 08:00:00 9,0 6,6 8 5 29 15 NNE 1038,0 - 0,0
21.01.2020 07:00:00 8,8 7,2 18 10 29 16 NE 1037,6 12 0,0
21.01.2020 06:00:00 8,9 7,2 21 11 31 17 NNE 1037,5 - 0,0
21.01.2020 05:00:00 8,5 7,6 21 11 32 18 NNE 1037,5 - 0,2
21.01.2020 04:00:00 8,5 7,4 17 9 29 16 NNW 1037,6 - 0,0
21.01.2020 03:00:00 8,6 7,2 21 11 31 17 NNW 1038,0 - 0,4
21.01.2020 02:00:00 8,3 6,9 20 11 30 16 NW 1038,0 - 0,4
21.01.2020 01:00:00 8,4 6,9 20 11 34 18 NNW 1037,8 - 0,2
21.01.2020 00:00:00 8,5 7,1 21 11 29 15 NNW 1038,0 - 0,6
20.01.2020 23:00:00 8,9 6,5 14 8 33 18 NNE 1037,8 - 0,0
20.01.2020 22:00:00 8,9 6,9 15 8 32 17 N 1037,3 - 0,0
20.01.2020 21:00:00 8,6 6,6 14 7 32 18 N 1037,2 - 0,0
20.01.2020 20:00:00 8,2 6,8 17 9 28 15 NNW 1036,8 15 0,2
20.01.2020 19:00:00 8,6 6,9 18 10 43 23 NNE 1036,2 - 0,8
20.01.2020 18:00:00 9,8 6,0 29 16 44 24 NE 1035,6 - 0,4
20.01.2020 17:00:00 9,5 5,9 21 11 48 26 NE 1035,3 - 0,4
20.01.2020 16:00:00 9,7 5,7 27 15 54 29 ENE 1035,0 15 0,6
20.01.2020 15:00:00 11,2 4,6 39 21 53 29 ENE 1034,4 - 0,0
20.01.2020 14:00:00 10,9 5,0 30 16 47 25 NE 1034,1 - 0,0
20.01.2020 13:00:00 10,7 5,2 30 16 46 25 NNE 1034,5 - 0,0
20.01.2020 12:00:00 10,5 4,2 32 17 52 28 NE 1034,8 - 0,0
20.01.2020 11:00:00 10,2 5,4 33 18 48 26 NE 1034,4 - 0,0
20.01.2020 10:00:00 9,7 5,7 32 17 52 28 NNE 1034,0 - 0,2
20.01.2020 09:00:00 9,8 5,6 36 19 52 28 NNE 1032,9 - 0,0
20.01.2020 08:00:00 10,2 5,2 37 20 53 29 NE 1032,3 - 0,0
20.01.2020 07:00:00 9,0 6,3 32 17 52 28 NE 1031,4 - 0,4
20.01.2020 06:00:00 8,6 6,6 38 20 54 29 NE 1030,7 - 1,6
20.01.2020 05:00:00 8,7 6,7 37 20 53 29 NE 1030,6 - 1,6
20.01.2020 04:00:00 8,7 7,0 35 19 49 26 NE 1030,0 - 1,1
20.01.2020 03:00:00 8,6 7,1 28 15 51 28 NE 1030,0 - 3,0
20.01.2020 02:00:00 9,0 6,8 32 17 48 26 ENE 1029,3 - 2,2
20.01.2020 01:00:00 9,8 6,7 31 17 58 31 ENE 1028,7 - 0,4
20.01.2020 00:00:00 11,3 6,2 42 23 58 31 ENE 1027,6 - 0,0
19.01.2020 23:00:00 11,6 5,7 34 19 49 27 ENE 1027,2 - 0,0
19.01.2020 22:00:00 11,6 6,1 33 18 57 31 ENE 1026,8 - 0,0
19.01.2020 21:00:00 11,5 5,8 39 21 58 31 NE 1026,2 - 0,0
19.01.2020 20:00:00 11,3 5,6 38 21 55 30 ENE 1025,6 - 0,0
19.01.2020 19:00:00 8,7 7,1 12 6 26 14 NNW 1025,4 - 1,4
19.01.2020 18:00:00 8,9 7,3 22 12 39 21 NNE 1025,5 - 1,2
19.01.2020 17:00:00 10,3 6,6 16 8 29 16 N 1024,8 - 0,4
19.01.2020 16:00:00 12,0 5,2 18 10 31 17 N 1023,8 - 0,0
19.01.2020 15:00:00 12,3 5,2 26 14 35 19 NNE 1023,2 - 0,0
19.01.2020 14:00:00 12,4 6,0 23 13 38 20 NNE 1023,0 - 0,0
19.01.2020 13:00:00 13,2 6,8 24 13 38 20 NNE 1023,1 - 0,0
19.01.2020 12:00:00 11,9 6,8 20 11 32 18 NNE 1023,4 - 0,0
19.01.2020 11:00:00 13,2 6,5 20 11 29 16 N 1023,5 - 0,0
19.01.2020 10:00:00 10,3 5,5 15 8 22 12 NNW 1023,3 30 0,0
19.01.2020 09:00:00 9,3 4,1 18 10 24 13 NNW 1022,7 - 0,0
19.01.2020 08:00:00 9,1 3,3 13 7 20 11 NNW 1022,6 - 0,0
19.01.2020 07:00:00 8,7 2,9 16 9 24 13 N 1022,4 20 0,0
19.01.2020 06:00:00 8,7 0,9 16 9 19 11 NNW 1022,2 - 0,0
19.01.2020 05:00:00 10,1 -0,4 9 5 14 8 W 1022,1 - 0,0
19.01.2020 04:00:00 10,0 2,6 5 3 12 6 SW 1022,1 20 0,0

tt = Température de l'air
td = dewpoint
ff = Vitesse du vent
fx = gusts
dd = Direction du vent
ppp = reduced air pressure
vv = visibility
rr = Quantités de précipitations

stations d'obs. à proximité